Overview Statistics Trail Chart Weather Telemetry Raw packets
 

This is the latest recevied weather packets stored in our database for station/object WA4ORT. If no packets are shown the sender has not sent any weather packets the latest 10 day(s).

<< 5 6 7 8 9 10 11 >>
Time Temp. Humidity Pressure Rain* Wind** Luminosity Snow
1788474135 33.33° C - - 0 mm 2.24 m/s, 56° - -
1788473324 33.89° C - - 0 mm 0.89 m/s, 110° - -
1788473241 33.89° C - - 0 mm 0.89 m/s, 110° - -
1788472644 33.89° C - - 0 mm 1.79 m/s, 97° - -
1788472343 33.89° C - - 0 mm 1.79 m/s, 97° - -
1788471501 33.89° C - - 0 mm 2.24 m/s, 122° - -
1788471449 33.89° C - - 0 mm 2.24 m/s, 122° - -
1788471014 33.89° C - - 0 mm 1.79 m/s, 174° - -
1788470554 33.89° C - - 0 mm 1.79 m/s, 174° - -
1788469715 33.89° C - - 0 mm 1.34 m/s, 105° - -
1788469656 33.89° C - - 0 mm 1.34 m/s, 105° - -
1788467978 33.89° C - - 0 mm 2.24 m/s, 156° - -
1788467868 33.89° C - - 0 mm 2.24 m/s, 156° - -
1788466075 33.89° C - - 0 mm 1.34 m/s, 45° - -
1788461823 33.33° C - - 0 mm 0.45 m/s, 135° - -
1788461597 33.33° C - - 0 mm 0.45 m/s, 135° - -
1788459808 33.33° C - - 0 mm 1.34 m/s, 93° - -
1788458910 32.78° C - - 0 mm 1.34 m/s, 186° - -
1788457121 33.33° C - - 0 mm 2.24 m/s, 188° - -
1788455329 32.22° C - - 0 mm 0 m/s - -
1788453593 31.67° C - - 0 mm 0.89 m/s, 4° - -
1788453537 31.67° C - - 0 mm 0.89 m/s, 4° - -
1788451748 31.67° C - - 0 mm 0.89 m/s, 281° - -
1788450851 30.56° C - - 0 mm 2.24 m/s, 77° - -
1788449956 30.56° C - - 0 mm 0.89 m/s, 158° - -

* Rain latest hour (hover to see other rain measurements)
** Current wind speed in m/s (hover to see current wind gust speed)